Terug naar catalogus

ATLAS 5 CENTAUR DEB

LostHEO
NORAD 46856·DEBRIS·🇺🇸 United States

Gelanceerd Oct 17, 2018 vanaf Cape Canaveral Space Force Station

Loading…

Volgende Passages (komende 24 uur)

TLE

VerouderdSource: Space-Track

Epoch: Sep 10, 2023, 10:18 UTC

1 46856U 18079DM  23253.42976332 -.00000053  00000-0  00000+0 0  9993
2 46856  11.3647 120.6002 4520074 161.8802 221.6793  1.93025800 20080

Volg ATLAS 5 CENTAUR DEB in realtime met AllMySat

Download on the App Store